Terug naar catalogus

FENGYUN 1C DEB

ActiefPO
NORAD 36686·DEBRIS·🇨🇳 China

Gelanceerd May 10, 1999 vanaf Taiyuan Satellite Launch Center

Loading…

Volgende Passages (komende 24 uur)

TLE

VersSource: Space-Track

Epoch: Sep 14, 2026, 09:38 UTC

1 36686U 99025DZG 26257.40157950  .00003604  00000-0  44224-3 0  9999
2 36686  98.9767 126.2871 0096839 267.2744  91.7378 14.80589816699279

Volg FENGYUN 1C DEB in realtime met AllMySat

Download on the App Store